When you browse on this site, cookies collect data to enhance your experience and personalize the content and advertising you see.
Visit our Privacy Policy to learn more. By continuing to use the site, you agree to this use of cookies and data.
  • In Hungary
  • List of Countries
  • For 7 days
  • Water Temperature
  • Satellite Maps
  • Weather Map
  • News
  • Weather Widgets
  • user-avatar
    Login

    Hourly Weather Ali Bayramli

    Today, 24 January, Thursday

    Time Temperature Precipitation Wind Pressure Humidity
    00:00 +8°C° 0 mm 1 mps 765 mmHg 85%
    01:00 +8°C° 0 mm 1 mps 764 mmHg 86%
    02:00 +8°C° 0 mm 1 mps 764 mmHg 87%
    03:00 +7°C° 0 mm 2 mps 764 mmHg 87%
    04:00 +7°C° 0 mm 2 mps 764 mmHg 87%
    05:00 +7°C° 0 mm 2 mps 764 mmHg 86%
    06:00 +6°C° 0 mm 2 mps 763 mmHg 85%
    07:00 +7°C° 0 mm 2 mps 764 mmHg 82%
    08:00 +7°C° 0 mm 2 mps 764 mmHg 78%
    09:00 +7°C° 0 mm 3 mps 764 mmHg 74%
    10:00 +8°C° 0 mm 3 mps 763 mmHg 69%
    11:00 +9°C° 0 mm 3 mps 763 mmHg 64%
    12:00 +10°C° 0 mm 3 mps 763 mmHg 60%
    13:00 +10°C° 0 mm 3 mps 762 mmHg 57%
    14:00 +11°C° 0 mm 3 mps 762 mmHg 54%
    15:00 +12°C° 0 mm 2 mps 761 mmHg 52%
    16:00 +10°C° 0 mm 2 mps 761 mmHg 57%
    17:00 +10°C° 0 mm 2 mps 761 mmHg 62%
    18:00 +9°C° 0 mm 2 mps 761 mmHg 67%
    19:00 +8°C° 0 mm 2 mps 761 mmHg 73%
    20:00 +8°C° 0 mm 2 mps 761 mmHg 78%
    21:00 +7°C° 0 mm 2 mps 760 mmHg 84%
    22:00 +7°C° 0 mm 2 mps 760 mmHg 87%
    23:00 +7°C° 0 mm 2 mps 760 mmHg 89%

    Tomorrow, 25 January, Friday

    Time Temperature Precipitation Wind Pressure Humidity
    00:00 +7°C° 0 mm 2 mps 759 mmHg 91%
    01:00 +5°C° 0 mm 3 mps 759 mmHg 87%
    02:00 +5°C° 0 mm 3 mps 758 mmHg 83%
    03:00 +5°C° 0 mm 3 mps 758 mmHg 79%
    04:00 +4°C° 0 mm 3 mps 758 mmHg 75%
    05:00 +4°C° 0 mm 4 mps 757 mmHg 70%
    06:00 +4°C° 0 mm 4 mps 757 mmHg 66%
    07:00 +5°C° 0 mm 4 mps 757 mmHg 59%
    08:00 +6°C° 0 mm 5 mps 757 mmHg 52%
    09:00 +5°C° 0 mm 6 mps 757 mmHg 46%
    10:00 +8°C° 0 mm 6 mps 757 mmHg 41%
    11:00 +10°C° 0 mm 6 mps 757 mmHg 36%
    12:00 +11°C° 0 mm 7 mps 757 mmHg 31%
    13:00 +13°C° 0 mm 6 mps 757 mmHg 30%
    14:00 +14°C° 0 mm 6 mps 757 mmHg 30%
    15:00 +15°C° 0 mm 5 mps 757 mmHg 29%
    16:00 +13°C° 0 mm 5 mps 757 mmHg 32%
    17:00 +12°C° 0 mm 4 mps 757 mmHg 35%
    18:00 +11°C° 0 mm 4 mps 758 mmHg 38%
    19:00 +11°C° 0 mm 3 mps 758 mmHg 41%
    20:00 +10°C° 0 mm 3 mps 759 mmHg 43%
    21:00 +9°C° 0 mm 2 mps 759 mmHg 45%
    22:00 +8°C° 0 mm 2 mps 759 mmHg 48%
    23:00 +9°C° 0 mm 1 mps 759 mmHg 51%

    Day after tomorrow, 26 January, Saturday

    Time Temperature Precipitation Wind Pressure Humidity
    00:00 +8°C° 0 mm 1 mps 760 mmHg 54%
    01:00 +8°C° 0 mm 1 mps 760 mmHg 57%
    02:00 +7°C° 0 mm 1 mps 760 mmHg 60%
    03:00 +7°C° 0 mm 1 mps 760 mmHg 64%
    04:00 +7°C° 0 mm 1 mps 760 mmHg 67%
    05:00 +7°C° 0 mm 1 mps 760 mmHg 71%
    06:00 +6°C° 0 mm 2 mps 761 mmHg 75%
    07:00 +6°C° 0 mm 2 mps 761 mmHg 73%
    08:00 +7°C° 0 mm 2 mps 761 mmHg 72%
    09:00 +8°C° 0 mm 2 mps 761 mmHg 71%
    10:00 +10°C° 0 mm 2 mps 761 mmHg 66%
    11:00 +12°C° 0 mm 2 mps 761 mmHg 61%
    12:00 +13°C° 0 mm 2 mps 760 mmHg 56%
    13:00 +13°C° 0 mm 2 mps 760 mmHg 55%
    14:00 +13°C° 0 mm 2 mps 759 mmHg 54%
    15:00 +14°C° 0 mm 2 mps 759 mmHg 53%
    16:00 +13°C° 0 mm 2 mps 759 mmHg 60%
    17:00 +10°C° 0 mm 2 mps 759 mmHg 66%
    18:00 +9°C° 0 mm 2 mps 759 mmHg 72%
    19:00 +9°C° 0 mm 2 mps 759 mmHg 77%
    20:00 +9°C° 0 mm 2 mps 759 mmHg 81%
    21:00 +8°C° 0 mm 2 mps 759 mmHg 86%
    22:00 +8°C° 0 mm 2 mps 758 mmHg 85%
    23:00 +8°C° 0 mm 2 mps 758 mmHg 83%

    27 January, Sunday

    Time Temperature Precipitation Wind Pressure Humidity
    00:00 +7°C° 0 mm 3 mps 758 mmHg 82%
    01:00 +7°C° 0 mm 3 mps 758 mmHg 74%
    02:00 +7°C° 0 mm 3 mps 758 mmHg 67%
    03:00 +7°C° 0 mm 3 mps 757 mmHg 59%
    04:00 +5°C° 0 mm 3 mps 757 mmHg 57%
    05:00 +5°C° 0 mm 3 mps 757 mmHg 55%
    06:00 +5°C° 0 mm 3 mps 757 mmHg 52%
    07:00 +6°C° 0 mm 4 mps 757 mmHg 49%
    08:00 +7°C° 0 mm 4 mps 757 mmHg 45%
    09:00 +8°C° 0 mm 4 mps 757 mmHg 41%
    10:00 +10°C° 0 mm 4 mps 757 mmHg 39%
    11:00 +12°C° 0 mm 4 mps 756 mmHg 36%
    12:00 +14°C° 0 mm 5 mps 756 mmHg 33%
    13:00 +15°C° 0 mm 4 mps 755 mmHg 32%
    14:00 +15°C° 0 mm 4 mps 754 mmHg 31%
    15:00 +17°C° 0 mm 4 mps 754 mmHg 30%
    16:00 +15°C° 0 mm 4 mps 754 mmHg 34%
    17:00 +14°C° 0 mm 4 mps 754 mmHg 37%
    18:00 +12°C° 0 mm 3 mps 754 mmHg 40%
    19:00 +12°C° 0 mm 3 mps 754 mmHg 42%
    20:00 +11°C° 0 mm 4 mps 754 mmHg 43%
    21:00 +11°C° 0 mm 4 mps 753 mmHg 44%
    22:00 +10°C° 0 mm 4 mps 753 mmHg 45%
    23:00 +10°C° 0 mm 4 mps 753 mmHg 46%

    28 January, Monday

    Time Temperature Precipitation Wind Pressure Humidity
    00:00 +10°C° 0 mm 4 mps 753 mmHg 47%
    01:00 +8°C° 0 mm 4 mps 753 mmHg 48%
    02:00 +8°C° 0 mm 5 mps 753 mmHg 49%
    03:00 +8°C° 0 mm 5 mps 753 mmHg 49%
    04:00 +8°C° 0 mm 5 mps 753 mmHg 50%
    05:00 +8°C° 0 mm 5 mps 753 mmHg 50%
    06:00 +8°C° 0 mm 6 mps 753 mmHg 51%
    07:00 +9°C° 0 mm 6 mps 754 mmHg 48%
    08:00 +10°C° 0 mm 6 mps 754 mmHg 46%
    09:00 +10°C° 0 mm 6 mps 755 mmHg 43%
    10:00 +12°C° 0 mm 5 mps 754 mmHg 42%
    11:00 +13°C° 0 mm 4 mps 754 mmHg 41%
    12:00 +13°C° 0 mm 3 mps 754 mmHg 41%
    13:00 +13°C° 0 mm 3 mps 754 mmHg 45%
    14:00 +13°C° 0 mm 2 mps 754 mmHg 49%
    15:00 +13°C° 0 mm 2 mps 754 mmHg 53%
    16:00 +12°C° 0.1 mm 2 mps 754 mmHg 60%
    17:00 +10°C° 0.1 mm 3 mps 755 mmHg 67%
    18:00 +9°C° 0.1 mm 3 mps 755 mmHg 74%
    19:00 +9°C° 0.3 mm 3 mps 755 mmHg 76%
    20:00 +9°C° 0.3 mm 3 mps 756 mmHg 78%
    21:00 +8°C° 0.3 mm 2 mps 756 mmHg 81%
    22:00 +8°C° 0.4 mm 2 mps 756 mmHg 82%
    23:00 +8°C° 0.4 mm 2 mps 756 mmHg 84%

    29 January, Tuesday

    Time Temperature Precipitation Wind Pressure Humidity
    00:00 +8°C° 0.4 mm 2 mps 756 mmHg 86%
    01:00 +7°C° 1 mm 2 mps 757 mmHg 88%
    02:00 +7°C° 1 mm 2 mps 757 mmHg 91%
    03:00 +7°C° 1 mm 2 mps 757 mmHg 93%
    04:00 +7°C° 1.3 mm 2 mps 757 mmHg 93%
    05:00 +8°C° 1.3 mm 1 mps 758 mmHg 93%
    06:00 +8°C° 1.3 mm 1 mps 758 mmHg 93%
    07:00 +8°C° 1 mm 1 mps 759 mmHg 93%
    08:00 +8°C° 1 mm 1 mps 760 mmHg 93%
    09:00 +7°C° 1 mm 2 mps 760 mmHg 92%
    10:00 +7°C° 0.8 mm 2 mps 761 mmHg 92%
    11:00 +8°C° 0.8 mm 2 mps 761 mmHg 91%
    12:00 +8°C° 0.8 mm 2 mps 761 mmHg 90%
    13:00 +8°C° 0 mm 2 mps 762 mmHg 87%
    14:00 +9°C° 0 mm 2 mps 762 mmHg 84%
    15:00 +10°C° 0 mm 2 mps 762 mmHg 80%
    16:00 +9°C° 0 mm 3 mps 763 mmHg 83%
    17:00 +8°C° 0 mm 3 mps 763 mmHg 85%
    18:00 +8°C° 0 mm 3 mps 764 mmHg 88%
    19:00 +7°C° 0 mm 3 mps 764 mmHg 87%
    20:00 +7°C° 0 mm 3 mps 765 mmHg 87%
    21:00 +7°C° 0 mm 3 mps 765 mmHg 87%
    22:00 +7°C° 0 mm 3 mps 765 mmHg 87%
    23:00 +6°C° 0 mm 4 mps 765 mmHg 87%
    Show more